EA1QW Weather Reports


Display with metric or nautical units.
time (UTC)temp
F
wind
direction
speed
MPH
gust
MPH
rain 1hr
in
rain 24hr
in
rain mn
in
humidity
%
barometer
mb
20260904125032 74 322 2.0 5.0 0.00 0.04 0.01 89 1020.3
20260904124519 74 329 0.0 4.0 0.00 0.04 0.01 89 1020.2
20260904124026 74 330 0.0 5.0 0.00 0.04 0.01 89 1020.1
20260904123515 73 331 2.0 6.0 0.00 0.04 0.01 89 1020.1
20260904123022 73 315 3.0 6.0 0.00 0.04 0.01 89 1020.1
20260904122511 74 341 3.0 6.0 0.00 0.04 0.01 89 1020.2
20260904122038 74 323 2.0 5.0 0.00 0.04 0.01 89 1020.3
20260904121525 74 317 1.0 4.0 0.00 0.04 0.01 89 1020.3
20260904121035 74 317 2.0 3.0 0.00 0.04 0.01 90 1020.3
20260904120542 73 315 0.0 6.0 0.00 0.04 0.01 90 1020.3
20260904120009 73 315 3.0 6.0 0.00 0.04 0.01 90 1020.3
20260904115518 73 275 3.0 6.0 0.00 0.04 0.01 89 1020.3
20260904115025 73 274 2.0 8.0 0.00 0.04 0.01 89 1020.3
20260904114513 73 277 3.0 8.0 0.00 0.04 0.01 89 1020.5
20260904114041 73 287 2.0 8.0 0.00 0.04 0.01 90 1020.4
20260904113527 73 289 3.0 7.0 0.00 0.04 0.01 90 1020.4
20260904113012 73 292 2.0 7.0 0.00 0.04 0.01 91 1020.5
20260904112520 72 291 3.0 7.0 0.00 0.04 0.01 91 1020.5
20260904112009 72 297 3.0 8.0 0.00 0.04 0.01 91 1020.6
20260904111538 72 310 1.0 8.0 0.00 0.04 0.01 92 1020.5
20260904111026 72 304 3.0 6.0 0.00 0.04 0.01 92 1020.7
20260904110514 72 281 2.0 7.0 0.00 0.04 0.01 91 1020.6
20260904110021 72 290 3.0 9.0 0.00 0.04 0.01 91 1020.7
20260904105510 72 273 4.0 9.0 0.00 0.04 0.01 91 1020.7
20260904105016 72 298 3.0 6.0 0.00 0.04 0.01 91 1020.7
20260904104525 72 297 1.0 8.0 0.00 0.04 0.01 91 1020.6
20260904104013 72 295 5.0 9.0 0.00 0.04 0.01 90 1020.6
20260904103542 73 271 3.0 9.0 0.00 0.04 0.01 90 1020.6
20260904103009 73 306 2.0 8.0 0.00 0.04 0.01 91 1020.6
20260904102517 73 296 4.0 9.0 0.00 0.04 0.01 91 1020.6
20260904102046 73 263 4.0 9.0 0.00 0.04 0.01 91 1020.5
20260904101512 72 278 5.0 9.0 0.00 0.04 0.01 91 1020.6
20260904101018 72 292 3.0 9.0 0.00 0.04 0.01 92 1020.7
20260904100526 72 293 3.0 10.0 0.00 0.04 0.01 91 1020.8
20260904100033 72 273 7.0 10.0 0.00 0.04 0.01 90 1020.8
20260904095541 72 271 4.0 11.0 0.00 0.04 0.01 91 1020.8
20260904095048 72 304 5.0 12.0 0.00 0.04 0.01 91 1020.8
20260904094515 72 262 4.0 12.0 0.00 0.04 0.01 91 1020.8
20260904094024 72 295 9.0 12.0 0.00 0.04 0.01 90 1020.6
20260904093510 73 302 8.0 12.0 0.00 0.04 0.01 90 1020.6
20260904093015 73 264 6.0 12.0 0.00 0.04 0.01 89 1020.6
20260904092525 73 293 7.0 12.0 0.00 0.04 0.01 89 1020.5
20260904092011 73 284 6.0 11.0 0.00 0.04 0.01 89 1020.4
20260904091519 73 273 4.0 11.0 0.00 0.04 0.01 89 1020.4
20260904091026 72 265 5.0 11.0 0.00 0.04 0.01 89 1020.4
20260904090515 72 275 2.0 9.0 0.00 0.04 0.01 90 1020.3
20260904090022 71 284 2.0 9.0 0.00 0.04 0.01 91 1020.2
20260904085531 71 319 3.0 9.0 0.00 0.04 0.01 91 1020.2
20260904085016 71 262 3.0 8.0 0.00 0.04 0.01 91 1020.1
20260904084524 70 338 1.0 5.0 0.00 0.04 0.01 92 1020.0
20260904084012 70 350 0.0 4.0 0.00 0.04 0.01 94 1019.9
20260904083541 70 350 1.0 4.0 0.00 0.04 0.01 95 1019.9
20260904083027 69 355 0.0 4.0 0.00 0.04 0.01 97 1019.8
20260904082516 69 355 0.0 4.0 0.00 0.04 0.01 97 1019.7
20260904082023 68 355 0.0 4.0 0.00 0.04 0.01 97 1019.6
20260904081511 68 360 0.0 5.0 0.00 0.04 0.01 98 1019.7
20260904081020 68 360 2.0 5.0 0.00 0.04 0.01 99 1019.7
20260904080528 67 16 0.0 0.0 0.00 0.04 0.01 100 1019.5
20260904080014 67 16 0.0 0.0 0.00 0.04 0.01 100 1019.4
20260904075521 66 16 0.0 0.0 0.00 0.04 0.01 100 1019.5
20260904075013 66 16 0.0 0.0 0.00 0.04 0.01 100 1019.4
20260904074521 66 16 0.0 0.0 0.00 0.04 0.01 100 1019.4
20260904074032 66 16 0.0 0.0 0.00 0.04 0.01 100 1019.3
20260904073536 66 16 0.0 0.0 0.00 0.04 0.01 100 1019.3
20260904073022 66 16 0.0 0.0 0.00 0.04 0.01 100 1019.2
20260904072515 66 16 0.0 0.0 0.00 0.04 0.01 100 1019.2
20260904072024 65 16 0.0 0.0 0.00 0.04 0.01 100 1019.1
20260904071513 65 16 0.0 0.0 0.00 0.04 0.01 100 1019.0
20260904071021 64 16 0.0 0.0 0.00 0.04 0.01 100 1019.1
20260904070528 64 16 0.0 0.0 0.00 0.04 0.01 100 1019.0
20260904070014 63 16 0.0 0.0 0.00 0.04 0.01 100 1018.9
20260904065524 63 16 0.0 0.0 0.00 0.04 0.01 100 1018.9
20260904065012 63 16 0.0 0.0 0.00 0.04 0.01 100 1018.8
20260904064540 63 16 0.0 0.0 0.00 0.04 0.01 100 1018.8
20260904064027 63 16 0.0 0.0 0.00 0.04 0.01 100 1018.7
20260904063515 63 16 0.0 0.0 0.00 0.04 0.01 100 1018.7
20260904063022 63 16 0.0 0.0 0.00 0.04 0.01 100 1018.7
20260904062544 62 16 0.0 0.0 0.00 0.04 0.01 100 1018.5
20260904062032 62 16 0.0 0.0 0.00 0.04 0.01 100 1018.6
20260904061519 62 16 0.0 0.0 0.00 0.04 0.01 100 1018.5
20260904061012 62 16 0.0 0.0 0.00 0.04 0.01 100 1018.5
20260904060520 62 16 0.0 0.0 0.00 0.04 0.01 100 1018.6
20260904060027 62 16 0.0 0.0 0.00 0.04 0.01 100 1018.5
20260904055516 62 16 0.0 0.0 0.00 0.04 0.01 100 1018.4
20260904055018 63 16 0.0 0.0 0.00 0.04 0.01 100 1018.4
20260904054526 63 16 0.0 0.0 0.00 0.04 0.01 100 1018.3
20260904054013 63 16 0.0 0.0 0.00 0.04 0.01 100 1018.3
20260904053521 63 16 0.0 0.0 0.00 0.04 0.01 100 1018.3
20260904053009 63 16 0.0 0.0 0.00 0.04 0.01 100 1018.1
20260904052517 63 16 0.0 0.0 0.04 0.04 0.01 100 1018.1
20260904052025 63 16 0.0 0.0 0.04 0.04 0.01 99 1018.1
20260904051513 63 16 0.0 0.0 0.04 0.04 0.01 99 1018.1
20260904051019 63 16 0.0 0.0 0.04 0.04 0.01 99 1018.0
20260904050529 63 16 0.0 0.0 0.04 0.04 0.01 99 1017.9
20260904050015 63 16 0.0 0.0 0.04 0.04 0.01 99 1017.9
20260904045522 63 16 0.0 0.0 0.04 0.04 0.01 99 1017.9
20260904045010 63 16 0.0 0.0 0.04 0.04 0.01 99 1017.7
20260904044515 62 16 0.0 0.0 0.04 0.04 0.01 99 1017.7
20260904044023 62 16 0.0 0.0 0.04 0.04 0.01 99 1017.7
20260904043511 62 16 0.0 0.0 0.04 0.04 0.01 99 1017.7
20260904043016 62 16 0.0 0.0 0.04 0.04 0.01 98 1017.7
20260904042524 62 16 0.0 0.0 0.00 0.00 0.00 98 1017.7
20260904042012 62 16 0.0 0.0 0.00 0.00 0.00 98 1017.8
20260904041517 62 16 0.0 0.0 0.00 0.00 0.00 98 1017.7
20260904041026 62 16 0.0 0.0 0.00 0.00 0.00 98 1017.8
20260904040513 63 16 0.0 0.0 0.00 0.00 0.00 98 1017.8
20260904040041 63 16 0.0 0.0 0.00 0.00 0.00 98 1017.9
20260904035509 63 16 0.0 0.0 0.00 0.00 0.00 98 1018.0
20260904035014 63 16 0.0 0.0 0.00 0.00 0.00 98 1018.0
20260904034522 63 16 0.0 0.0 0.00 0.00 0.00 98 1018.0
20260904034011 63 16 0.0 0.0 0.00 0.00 0.00 98 1018.0
20260904033539 63 16 0.0 0.0 0.00 0.00 0.00 98 1017.9
20260904033028 63 16 0.0 0.0 0.00 0.00 0.00 98 1018.0
20260904032515 63 16 0.0 0.0 0.00 0.00 0.00 98 1018.1
20260904032023 63 16 0.0 0.0 0.00 0.00 0.00 98 1018.1
20260904031533 63 16 0.0 0.0 0.00 0.00 0.00 98 1018.1
20260904031040 63 16 0.0 0.0 0.00 0.00 0.00 98 1018.2
20260904030528 63 16 0.0 0.0 0.00 0.00 0.00 98 1018.2
20260904030013 63 16 0.0 0.0 0.00 0.00 0.00 98 1018.1
20260904025522 63 16 0.0 0.0 0.00 0.00 0.00 98 1018.1
20260904025010 63 16 0.0 0.0 0.00 0.00 0.00 98 1018.1
20260904024517 63 16 0.0 0.0 0.00 0.00 0.00 98 1018.1
20260904024045 63 16 0.0 0.0 0.00 0.00 0.00 98 1018.1
20260904023532 63 16 0.0 0.0 0.00 0.00 0.00 98 1018.0
20260904023016 63 16 0.0 0.0 0.00 0.00 0.00 97 1018.1
20260904022526 63 16 0.0 0.0 0.00 0.00 0.00 97 1018.1
20260904022013 64 16 0.0 0.0 0.00 0.00 0.00 97 1018.1
20260904021521 64 16 0.0 0.0 0.00 0.00 0.00 97 1018.1
20260904021009 64 16 0.0 0.0 0.00 0.00 0.00 97 1018.1
20260904020517 64 16 0.0 0.0 0.00 0.00 0.00 97 1018.2
20260904020022 64 16 0.0 0.0 0.00 0.00 0.00 97 1018.1
20260904015511 64 16 0.0 0.0 0.00 0.00 0.00 97 1018.1
20260904015017 64 16 0.0 0.0 0.00 0.00 0.00 97 1018.2
20260904014527 64 16 0.0 0.0 0.00 0.00 0.00 97 1018.1
20260904014014 64 16 0.0 0.0 0.00 0.00 0.00 96 1018.2
20260904013521 64 16 0.0 0.0 0.00 0.00 0.00 96 1018.2
20260904013030 64 16 0.0 0.0 0.00 0.00 0.00 96 1018.3
20260904012518 64 16 0.0 0.0 0.00 0.00 0.00 96 1018.2
20260904012048 65 16 0.0 0.0 0.00 0.00 0.00 96 1018.4
20260904011514 65 16 0.0 0.0 0.00 0.00 0.00 96 1018.4
20260904011020 65 16 0.0 0.0 0.00 0.00 0.00 96 1018.4
20260904010508 65 16 0.0 0.0 0.00 0.00 0.00 97 1018.4
20260904010015 65 16 0.0 0.0 0.00 0.00 0.00 96 1018.3
20260904005524 65 16 0.0 0.0 0.00 0.00 0.00 96 1018.4
20260904005011 65 16 0.0 0.0 0.00 0.00 0.00 96 1018.4
20260904004519 65 16 0.0 0.0 0.00 0.00 0.00 96 1018.4
20260904004027 65 16 0.0 0.0 0.00 0.00 0.00 96 1018.4
20260904003515 66 16 0.0 0.0 0.00 0.00 0.00 96 1018.5
20260904003024 66 16 0.0 0.0 0.00 0.00 0.00 96 1018.6
20260904002512 66 16 0.0 0.0 0.00 0.00 0.00 96 1018.5
20260904002020 66 16 0.0 0.0 0.00 0.00 0.00 96 1018.6
20260904001508 66 16 0.0 0.0 0.00 0.00 0.00 96 1018.5
20260904001015 66 16 0.0 0.0 0.00 0.00 0.00 96 1018.5
20260904000522 66 16 0.0 0.0 0.00 0.00 0.00 96 1018.5
20260904000009 66 16 0.0 0.0 0.00 0.00 0.00 96 1018.6
20260903235538 66 16 0.0 0.0 0.00 0.00 0.00 95 1018.6
20260903235026 66 16 0.0 0.0 0.00 0.00 0.00 95 1018.6
20260903234513 66 16 0.0 0.0 0.00 0.00 0.00 95 1018.7
20260903234042 66 16 0.0 0.0 0.00 0.00 0.00 95 1018.7
20260903233509 67 16 0.0 0.0 0.00 0.00 0.00 96 1018.7
20260903233016 67 16 0.0 0.0 0.00 0.00 0.00 95 1018.7
20260903232523 67 16 0.0 0.0 0.00 0.00 0.00 95 1018.8
20260903232016 67 16 0.0 0.0 0.00 0.00 0.00 95 1018.9
20260903231526 67 16 0.0 0.0 0.00 0.00 0.00 95 1018.9
20260903231012 67 16 0.0 0.0 0.00 0.00 0.00 95 1019.1
20260903230540 67 16 0.0 0.0 0.00 0.00 0.00 95 1019.1
20260903230026 67 16 0.0 0.0 0.00 0.00 0.00 95 1019.1
20260903225513 67 16 0.0 0.0 0.00 0.00 0.00 95 1019.1
20260903225019 68 16 0.0 0.0 0.00 0.00 0.00 95 1019.0
20260903224526 68 16 0.0 0.0 0.00 0.00 0.00 94 1019.0
20260903224014 68 16 0.0 0.0 0.00 0.00 0.00 94 1019.0
20260903223543 68 16 0.0 0.0 0.00 0.00 0.00 94 1018.9
20260903223009 68 16 0.0 0.0 0.00 0.00 0.00 94 1018.8
20260903222538 68 16 0.0 0.0 0.00 0.00 0.00 94 1019.0
20260903222024 68 16 0.0 0.0 0.00 0.00 0.00 94 1018.9
20260903221512 68 16 0.0 0.0 0.00 0.00 0.00 94 1019.0
20260903221020 68 16 0.0 0.0 0.00 0.00 0.00 94 1018.9
20260903220529 69 16 0.0 0.0 0.00 0.00 0.00 94 1018.9
20260903220015 69 16 0.0 0.0 0.00 0.00 0.00 94 1019.0
20260903215526 69 16 0.0 0.0 0.00 0.00 0.00 94 1019.0
20260903215011 69 16 0.0 0.0 0.00 0.00 0.00 94 1018.9
20260903214540 69 16 0.0 0.0 0.00 0.00 0.00 94 1019.1
20260903214028 69 16 0.0 0.0 0.00 0.00 0.00 94 1019.1
20260903213515 69 16 0.0 0.0 0.00 0.00 0.00 94 1019.0
20260903213042 69 16 0.0 0.0 0.00 0.00 0.00 93 1019.0
20260903212510 69 16 0.0 0.0 0.00 0.00 0.00 93 1019.2
20260903212017 69 16 0.0 0.0 0.00 0.00 0.00 93 1019.2
20260903211526 70 16 0.0 0.0 0.00 0.00 0.00 93 1019.3
20260903211012 70 16 0.0 0.0 0.00 0.00 0.00 92 1019.4
20260903210521 70 16 0.0 0.0 0.00 0.00 0.00 93 1019.4
20260903210048 70 16 0.0 0.0 0.00 0.00 0.00 92 1019.4
20260903205515 70 16 0.0 0.0 0.00 0.00 0.00 92 1019.3
20260903205040 70 16 0.0 0.0 0.00 0.00 0.00 92 1019.3
20260903204528 70 16 0.0 0.0 0.00 0.00 0.00 92 1019.4
20260903204016 70 16 0.0 0.0 0.00 0.00 0.00 91 1019.3
20260903203525 70 16 0.0 0.0 0.00 0.00 0.00 91 1019.4
20260903203008 71 16 0.0 0.0 0.00 0.00 0.00 91 1019.3
20260903202516 71 16 0.0 0.0 0.00 0.00 0.00 90 1019.3
20260903202025 71 16 0.0 0.0 0.00 0.00 0.00 90 1019.3
20260903201512 71 16 0.0 0.0 0.00 0.00 0.00 90 1019.2
20260903201017 71 16 0.0 0.0 0.00 0.00 0.00 89 1019.2
20260903200546 72 16 0.0 0.0 0.00 0.00 0.00 89 1019.2
20260903200033 72 16 0.0 0.0 0.00 0.00 0.00 88 1019.0
20260903195521 72 16 0.0 0.0 0.00 0.00 0.00 88 1019.0
20260903195009 72 16 0.0 0.0 0.00 0.00 0.00 88 1018.8
20260903194537 72 16 0.0 0.0 0.00 0.00 0.00 87 1018.8
20260903194021 72 16 0.0 0.0 0.00 0.00 0.00 87 1018.8
20260903193509 73 16 0.0 0.0 0.00 0.00 0.00 86 1018.8
20260903193016 73 16 0.0 0.0 0.00 0.00 0.00 86 1018.8
20260903192525 73 16 0.0 0.0 0.00 0.00 0.00 86 1018.7
20260903192013 73 16 0.0 0.0 0.00 0.00 0.00 85 1018.8
20260903191520 73 16 0.0 0.0 0.00 0.00 0.00 85 1018.7
20260903191049 73 16 0.0 1.0 0.00 0.00 0.00 85 1018.6
20260903190515 74 16 0.0 1.0 0.00 0.00 0.00 84 1018.6
20260903190024 74 16 0.0 0.0 0.00 0.00 0.00 84 1018.6
20260903185531 74 16 0.0 0.0 0.00 0.00 0.00 84 1018.7
20260903185015 74 16 0.0 0.0 0.00 0.00 0.00 84 1018.6
20260903184524 74 16 0.0 4.0 0.00 0.00 0.00 84 1018.6
20260903184012 74 16 0.0 4.0 0.00 0.00 0.00 83 1018.6
20260903183520 74 16 2.0 4.0 0.00 0.00 0.00 83 1018.5
20260903183027 74 16 0.0 1.0 0.00 0.00 0.00 83 1018.6
20260903182515 74 16 0.0 3.0 0.00 0.00 0.00 82 1018.6
20260903182024 75 16 1.0 6.0 0.00 0.00 0.00 82 1018.7
20260903181510 75 16 0.0 6.0 0.00 0.00 0.00 82 1018.7
20260903181018 75 28 2.0 8.0 0.00 0.00 0.00 82 1018.7
20260903180526 75 28 3.0 8.0 0.00 0.00 0.00 81 1018.7
20260903180014 75 25 3.0 8.0 0.00 0.00 0.00 81 1018.7
20260903175524 75 17 2.0 8.0 0.00 0.00 0.00 81 1018.8
20260903175031 75 35 0.0 4.0 0.00 0.00 0.00 81 1018.8
20260903174517 75 35 1.0 8.0 0.00 0.00 0.00 82 1018.9
20260903174024 75 37 4.0 8.0 0.00 0.00 0.00 82 1018.9
20260903173533 75 26 2.0 8.0 0.00 0.00 0.00 82 1019.0
20260903173021 75 19 4.0 10.0 0.00 0.00 0.00 82 1019.0
20260903172509 75 34 4.0 12.0 0.00 0.00 0.00 82 1019.1
20260903172014 75 21 5.0 12.0 0.00 0.00 0.00 82 1019.1
20260903171544 75 38 7.0 12.0 0.00 0.00 0.00 82 1019.1
20260903171011 75 30 7.0 11.0 0.00 0.00 0.00 82 1019.2
20260903170518 75 9 7.0 12.0 0.00 0.00 0.00 82 1019.1
20260903170028 75 18 8.0 12.0 0.00 0.00 0.00 81 1019.2
20260903165516 75 22 7.0 12.0 0.00 0.00 0.00 81 1019.2
20260903165023 75 22 7.0 12.0 0.00 0.00 0.00 81 1019.3
20260903164510 75 38 8.0 12.0 0.00 0.00 0.00 80 1019.3
20260903164035 76 26 7.0 12.0 0.00 0.00 0.00 80 1019.3
20260903163523 76 48 6.0 12.0 0.00 0.00 0.00 80 1019.3
20260903163011 76 18 6.0 13.0 0.00 0.00 0.00 80 1019.3
20260903162540 76 37 6.0 13.0 0.00 0.00 0.00 80 1019.3
20260903162028 76 51 8.0 15.0 0.00 0.00 0.00 80 1019.5
20260903161531 76 19 7.0 15.0 0.00 0.00 0.00 80 1019.5
20260903161037 76 17 7.0 12.0 0.00 0.00 0.00 80 1019.5
20260903160524 76 13 7.0 11.0 0.00 0.00 0.00 80 1019.7
20260903160011 76 28 6.0 12.0 0.00 0.00 0.00 80 1019.6
20260903155518 76 50 6.0 12.0 0.00 0.00 0.00 80 1019.7
20260903155026 75 52 7.0 13.0 0.00 0.00 0.00 81 1019.8
20260903154514 75 45 8.0 15.0 0.00 0.00 0.00 82 1019.9
20260903154022 75 22 9.0 15.0 0.00 0.00 0.00 82 1019.9
20260903153509 75 30 9.0 15.0 0.00 0.00 0.00 82 1020.0
20260903153013 75 5 8.0 16.0 0.00 0.00 0.00 82 1020.0
20260903152522 74 40 9.0 16.0 0.00 0.00 0.00 83 1020.2
20260903152028 74 26 10.0 16.0 0.00 0.00 0.00 83 1020.2
20260903151515 74 31 9.0 17.0 0.00 0.00 0.00 84 1020.2
20260903151022 74 56 10.0 20.0 0.00 0.00 0.00 84 1020.3
20260903150528 74 25 13.0 20.0 0.00 0.00 0.00 83 1020.2
20260903150013 74 46 11.0 20.0 0.00 0.00 0.00 83 1020.2
20260903145522 74 37 13.0 21.0 0.00 0.00 0.00 83 1020.4
20260903145010 74 51 13.0 21.0 0.00 0.00 0.00 83 1020.4
20260903144521 74 46 13.0 22.0 0.00 0.00 0.00 83 1020.4
20260903144009 74 59 12.0 22.0 0.00 0.00 0.00 84 1020.5
20260903143538 74 30 11.0 20.0 0.00 0.00 0.00 83 1020.4
20260903143012 74 39 13.0 24.0 0.00 0.00 0.00 84 1020.4
20260903142521 74 48 14.0 24.0 0.00 0.00 0.00 83 1020.4
20260903142011 74 28 12.0 22.0 0.00 0.00 0.00 83 1020.4
20260903141518 74 40 12.0 22.0 0.00 0.00 0.00 83 1020.5
20260903141026 74 65 13.0 22.0 0.00 0.00 0.00 83 1020.6
20260903140510 74 44 13.0 23.0 0.00 0.00 0.00 83 1020.5
20260903140038 74 49 13.0 23.0 0.00 0.00 0.00 83 1020.4
20260903135543 74 30 13.0 23.0 0.00 0.00 0.00 83 1020.4
20260903135021 74 28 13.0 23.0 0.00 0.00 0.00 82 1020.4
20260903134509 74 34 15.0 23.0 0.00 0.00 0.00 82 1020.4
20260903134035 74 76 14.0 23.0 0.00 0.00 0.00 82 1020.5
20260903133522 74 59 14.0 22.0 0.00 0.00 0.00 82 1020.5
20260903133031 74 342 13.0 22.0 0.00 0.00 0.00 81 1020.5
20260903132520 74 42 13.0 22.0 0.00 0.00 0.00 80 1020.6
20260903132027 75 34 13.0 20.0 0.00 0.00 0.00 79 1020.5
20260903131527 75 5 10.0 20.0 0.00 0.00 0.00 80 1020.6
20260903131036 74 31 9.0 17.0 0.00 0.00 0.00 81 1020.5
20260903130524 74 48 10.0 20.0 0.00 0.00 0.00 80 1020.6
20260903130012 74 33 12.0 22.0 0.00 0.00 0.00 80 1020.5
20260903125519 74 51 12.0 22.0 0.00 0.00 0.00 80 1020.6